Pagina principală
METAR-TAF:

METAR-TAF

Aeroporturi :

Iwo Jima, Japonia

Latitudine: 24-47N, longitudine: 141-19E, elevație: 113 m

Observații meteo curente

Raportul a fost făcut în urmă cu 1 oră și 16 de minute, la 15:00 UTC
Vânt 4 kt de la Nord
Temperatură 21°C
Umiditate 73%
Presiune 1017 hPa
Vizibilitate de 10 km sau mai mult
Nori puțini la o înălțime de 1500 picior

METAR: RJAW 081500Z 35004KT 9999 FEW015 21/16 Q1017 RMK 1CU015 A3004

Ora: 01:16 (16:16 UTC)


TAF: lipsă

Observații și prognoze meteo pentru peste 4.000 de aeroporturi (rapoarte METAR și TAF).

Stațiile disponibile sunt reprezentate pe hartă prin puncte galbene și roșii.

Țineți indicatorul mouse-ului pe punctul dorit pentru a vedea denumirea stației.

Apoi, faceți clic pentru a vedea observațiile și prognozele meteorologice.

Pentru a schimba harta: Pentru mărire, faceți clic pe butoanele verzi cu cruce neagră; pentru micșorare, pe butonul verde cu o liniuță; pentru hărți învecinate, pe săgețile verzi.


METAR-TAF: